This demonstration page uses our WeatherBlox Daily Observations layout. Learn more.

Left ArrowRight Arrow

53.62937, 11.41316

Hourly Observations for March 27, 2021

Temp ( °F °C ) Dew Point ( °F °C ) Humidity (%) Winds ( mph kmh ) Pressure ( in mb ) Visibility ( mi km ) Precip ( " mm )
8:20 am 08:20 Mostly Cloudy with Light Rain 43 6 39 4 87 87 SW 13 20 29.83 1010 30 48 N/A
8:50 am 08:50 Mostly Cloudy with Drizzle 43 6 39 4 87 87 SW 15 24 29.86 1011 30 48 N/A
9:20 am 09:20 Mostly Cloudy with Light Rain 41 5 37 3 87 87 WSW 14 22 29.86 1011 30 48 N/A
9:50 am 09:50 Mostly Cloudy 43 6 37 3 81 81 SW 10 17 29.89 1012 30 48 N/A
10:20 am 10:20 Partly Cloudy 43 6 37 3 81 81 SW 14 22 29.89 1012 30 48 N/A
10:50 am 10:50 Partly Cloudy 45 7 39 4 81 81 SW 16 26 29.89 1012 30 48 N/A
11:20 am 11:20 Partly Cloudy 48 9 37 3 66 66 SW 18 30 29.92 1013 30 48 N/A
11:50 am 11:50 Partly Cloudy with Showers Nearby 48 9 37 3 66 66 SW 14 22 29.92 1013 30 48 N/A
12:20 pm 12:20 Mostly Cloudy with Showers Nearby 45 7 36 2 71 71 SW 18 30 29.92 1013 30 48 N/A
12:50 pm 12:50 Partly Cloudy with Showers Nearby 45 7 37 3 76 76 SSW 17 28 29.95 1014 30 48 N/A
1:20 pm 13:20 Partly Cloudy with Showers Nearby 46 8 39 4 76 76 SW 16 26 29.94 1014 30 48 N/A
1:50 pm 13:50 Partly Cloudy with Showers Nearby 41 5 37 3 87 87 WSW 13 20 29.98 1015 30 48 N/A
2:20 pm 14:20 Partly Cloudy with Light Showers 43 6 37 3 81 81 SW 14 22 30.00 1016 30 48 N/A
2:50 pm 14:50 Partly Cloudy with Light Showers 43 6 37 3 81 81 SW 13 20 30.00 1016 30 48 N/A
3:20 pm 15:20 Partly Cloudy 46 8 39 4 76 76 SW 14 22 30.00 1016 30 48 N/A
3:50 pm 15:50 Partly Cloudy 45 7 36 2 71 71 SW 14 22 30.00 1016 30 48 N/A
4:20 pm 16:20 Partly Cloudy with Showers Nearby 46 8 34 1 62 62 WSW 10 17 30.03 1017 30 48 N/A
4:50 pm 16:50 Partly Cloudy with Showers Nearby 46 8 34 1 62 62 WSW 15 24 30.03 1017 30 48 N/A
5:20 pm 17:20 Partly Cloudy with Showers Nearby 45 7 32 0 61 61 WSW 18 30 30.06 1018 30 48 N/A
5:50 pm 17:50 Partly Cloudy 45 7 32 0 61 61 SW 15 24 30.06 1018 30 48 N/A
6:20 pm 18:20 Partly Cloudy with Showers Nearby 43 6 34 1 71 71 WSW 13 20 30.09 1019 30 48 N/A
6:50 pm 18:50 Partly Cloudy 43 6 34 1 71 71 SW 10 17 30.09 1019 30 48 N/A
7:20 pm 19:20 Mostly Clear 43 6 34 1 71 71 SW 12 19 30.12 1020 30 48 N/A
7:50 pm 19:50 Mostly Clear 41 5 34 1 76 76 SW 13 20 30.15 1021 7 11 N/A

Powered by AerisWeather